Location: Bosmont
(49.7318°N, 3.8587°E)
Time: 09:06:35
(UTC+00:00)

PAYLOAD B - Pass Details

Date: 08 February 2023
Orbit: 849 x 870 km, 99.1° (Epoch: 22 March)

Event Time Altitude Azimuth Distance (km) Brightness Sun altitude
Rises 18:01:43 0° 156° (SSE) 3,413 7.2 -11.8°
Reaches altitude 10° 18:04:05 10° 155° (SSE) 2,478 6.5 -12.2°
Maximum altitude 18:09:34 75° 71° (ENE) 885 4.1 -13.0°
Drops below altitude 10° 18:15:04 10° 347° (NNW) 2,488 6.7 -13.9°
Sets 18:17:27 0° 346° (NNW) 3,428 7.5 -14.3°
